Location: Champignolles
(47.0543°N, 4.5663°E)
Time: 07:54:38
(UTC+00:00)

Cosmos 923 Rocket - Pass Details

Date: 20 April 2021
Orbit: 759 x 785 km, 74.0° (Epoch: 13 May)

Event Time Altitude Azimuth Distance (km) Brightness Sun altitude
Rises 01:40:30 0° 338° (NNW) 3,231 7.7 -25.6°
Reaches altitude 10° 01:42:52 10° 338° (NNW) 2,303 6.9 -25.4°
Maximum altitude 01:48:06 86° 67° (ENE) 772 3.9 -24.9°
Enters shadow 01:49:13 57° 153° (SSE) 899 4.1 -24.8°
